Hourly Data Report for August 14, 2019

QUALICUM BEACH AIRPORT
BRITISH COLUMBIA
Current Station Operator: ECCC - MSC

49°20'14.000" N
124°23'38.000" W
58.20 m
1026562
71766
VOQ

Download Data

Hourly Data (August 2019)
Hourly Data Report for August 14, 2019
TIME
LST
Temp Definition
°C
Dew Point Definition
°C
Rel Hum Definition
%
Precip. Amount Definition
mm

Wind Dir Definition
10's deg

Wind Spd Definition
km/h
Visibility Definition
km
Stn Press Definition
kPa
Hmdx Definition


Wind Chill Definition


Weather Definition


00:00 15.2 13.2 88 0.0 28 3   101.31     LegendNANA
01:00 14.6 13.0 90 0.0   0   101.32     LegendNANA
02:00 14.4 12.8 90 0.0 26 2   101.37     LegendNANA
03:00 14.1 12.5 90 0.0 27 1   101.39     LegendNANA
04:00 13.1 11.9 92 0.0 23 3   101.41     LegendNANA
05:00 13.2 12.1 93 0.0 25 3   101.42     LegendNANA
06:00 14.2 12.6 90 0.0 26 2   101.44     LegendNANA
07:00 17.3 13.9 81 0.0 26 3   101.47     LegendNANA
08:00 19.8 13.1 65 0.0 30 11   101.50     LegendNANA
09:00 20.3 13.1 63 0.0 32 11   101.52     LegendNANA
10:00 21.0 13.0 60 0.0 31 13   101.53     LegendNANA
11:00 22.7 12.3 52 0.0 36 9   101.49 25   LegendNANA
12:00 22.9 12.8 53 0.0 36 8   101.47 26   LegendNANA
13:00 24.1 12.2 47 0.0 35 9   101.45 26   LegendNANA
14:00 24.8 11.6 44 0.0 36 7   101.41 27   LegendNANA
15:00 25.0 11.2 42 0.0 34 7   101.38 27   LegendNANA
16:00 26.4 11.8 40 0.0 35 5   101.35 29   LegendNANA
17:00 26.7 11.8 39 0.0 31 6   101.30 29   LegendNANA
18:00 26.5 12.0 41 0.0 32 8   101.30 29   LegendNANA
19:00 24.1 13.0 50 0.0 30 3   101.31 27   LegendNANA
20:00 20.3 13.1 63 0.0 21 2   101.33     LegendNANA
21:00 20.8 13.7 64 0.0 24 4   101.37     LegendNANA
22:00 18.3 13.6 74 0.0 0 1   101.38     LegendNANA
23:00 18.8 13.8 73 0.0 28 6   101.41     LegendNANA

Notes on Data Quality.

Legend

  • E = Estimated
  • M = Missing
  • NA = Not Available*
  • [empty] = Indicates an unobserved value
Date modified: